[[[{"header":{"parameterUnit":"kt","parameterCategory":2,"dx":1,"dy":1,"la1":30.253999710083008,"la2":30.299108505249023,"lo1":-89.0895004272461,"lo2":-89.04439544677734,"nx":28,"ny":28,"refTime":"2022-09-22T21:00:00:Z","depth":"0","parameterNumber":2,"parameterNumberName":"U-component_of_CURRENTS"},"data":[-0.0291,-0.0216,-0.0165,-0.0033,0.0036,0.0158,0.0236,0.0377,0.0519,0.0795,0.1,0.115,0.1446,0.1853,0.1955,0.1868,0.1745,0.1878,0.1726,0.1498,0.1446,0.1397,0.1421,0.1892,0.1893,0.1978,0.198,0.1981,-0.0306,-0.0246,-0.0175,-0.0074,0.0,0.0033,0.015,0.024,0.0384,0.0539,0.068,0.0981,0.1144,0.1206,0.1339,0.1368,0.1243,0.1377,0.139,0.1294,0.0997,0.1018,0.1411,0.1411,0.1411,0.1411,0.1411,0.1411,-0.0326,-0.0277,-0.0221,-0.0138,-0.0075,0.0012,0.0087,0.0165,0.027,0.041,0.0466,0.0629,0.0799,0.0855,0.0807,0.0882,0.0761,0.0839,0.0876,0.0886,0.0873,0.0591,0.0842,0.0841,0.0839,0.0838,0.0836,0,-0.0344,-0.0313,-0.0269,-0.0192,-0.0134,-0.006,0.0008,0.0057,0.0118,0.0191,0.0314,0.0381,0.0476,0.0556,0.0565,0.0504,0.0404,0.0362,0.0408,0.0538,0.0649,0.0573,0.0112,0.036,0.0356,0.0352,0.035,0.0348,-0.0376,-0.0344,-0.0275,-0.0236,-0.021,-0.0142,-0.0099,-0.0059,-0.0013,0.0075,0.0118,0.0185,0.0245,0.0268,0.0204,0.0182,0.0112,0.0253,0.0107,0.0224,0.0243,0.0261,0.0209,0.0298,0.0304,0.0309,0.0314,0,-0.0384,-0.0376,-0.0321,-0.0275,-0.0256,-0.0203,-0.0143,-0.0098,-0.0072,-0.0005,0.0007,0.0007,0.0036,-0.004,-0.0129,-0.0193,-0.0129,-0.0218,-0.0049,-0.0048,0.01,0.0133,0.0453,0.0426,-0.0052,-0.0048,-0.0044,0,-0.0417,-0.0385,-0.0362,-0.0338,-0.0272,-0.0271,-0.0205,-0.0194,-0.0164,-0.0108,-0.0159,-0.0129,-0.0264,-0.0265,-0.0379,-0.0361,-0.0416,-0.0464,-0.0482,-0.0399,-0.0381,-0.0352,-0.0323,-0.0647,-0.0649,-0.065,-0.0651,0,-0.0457,-0.0421,-0.039,-0.0379,-0.0359,-0.033,-0.0324,-0.0315,-0.0295,-0.0272,-0.0255,-0.0279,-0.0305,-0.0379,-0.0491,-0.0572,-0.0517,-0.066,-0.0559,-0.0548,-0.0472,-0.0457,-0.0187,-0.0653,-0.0653,-0.0654,-0.0654,0,-0.0489,-0.0479,-0.0441,-0.0405,-0.0403,-0.0391,-0.0381,-0.0378,-0.0371,-0.0387,-0.0396,-0.0461,-0.0477,-0.0601,-0.0642,-0.0681,-0.0737,-0.0803,-0.08,-0.0725,-0.0816,-0.0548,-0.0341,-0.0273,-0.0785,-0.0787,-0.0788,0,-0.052,-0.0496,-0.052,-0.0487,-0.0482,-0.0522,-0.0515,-0.0527,-0.0565,-0.056,-0.0623,-0.0653,-0.0757,-0.0785,-0.0808,-0.0905,-0.0875,-0.0942,-0.0981,-0.0979,-0.0849,-0.0683,-0.0557,-0.0381,-0.081,-0.0808,-0.0806,0,-0.0563,-0.0576,-0.0575,-0.0564,-0.0614,-0.0626,-0.0627,-0.0652,-0.0633,-0.0705,-0.0683,-0.0788,-0.0828,-0.0882,-0.0973,-0.0992,-0.0909,-0.1076,-0.1081,-0.0981,-0.0868,-0.073,-0.0701,-0.0999,-0.0997,-0.0996,-0.0823,0,-0.0597,-0.0606,-0.06,-0.0648,-0.0666,-0.0666,-0.0729,-0.0747,-0.0803,-0.0841,-0.0868,-0.0986,-0.1054,-0.1088,-0.1167,-0.1139,-0.1145,-0.124,-0.1295,-0.1216,-0.115,-0.1136,-0.135,-0.1353,-0.1356,-0.1358,0,0,-0.0636,-0.0667,-0.0737,-0.0737,-0.075,-0.0835,-0.083,-0.0872,-0.0965,-0.0969,-0.1026,-0.1151,-0.1244,-0.1266,-0.1254,-0.1314,-0.1308,-0.1321,-0.1265,-0.1254,-0.1244,-0.1177,-0.116,-0.1363,-0.1364,-0.1364,-0.1365,0,-0.0677,-0.0729,-0.0736,-0.0763,-0.0812,-0.087,-0.0868,-0.0953,-0.0985,-0.1036,-0.1123,-0.117,-0.1296,-0.1346,-0.1392,-0.1349,-0.1398,-0.1377,-0.1272,-0.1287,-0.1272,-0.126,-0.119,-0.1173,-0.1372,-0.1371,-0.1371,0,-0.0728,-0.0782,-0.0798,-0.0871,-0.0916,-0.0936,-0.1009,-0.1027,-0.1041,-0.1175,-0.1222,-0.1297,-0.1403,-0.1439,-0.1464,-0.1498,-0.1472,-0.1522,-0.151,-0.1493,-0.1512,-0.1496,-0.1481,-0.1667,-0.1667,-0.1668,0,0,-0.0759,-0.0788,-0.0872,-0.0888,-0.0908,-0.0991,-0.1016,-0.1056,-0.113,-0.1162,-0.1253,-0.1339,-0.1403,-0.1444,-0.1516,-0.1554,-0.1569,-0.155,-0.1537,-0.1525,-0.1501,-0.1517,-0.1501,-0.1669,-0.1669,-0.1669,0,0,-0.0776,-0.0871,-0.0907,-0.0935,-0.0983,-0.1077,-0.1079,-0.1129,-0.1199,-0.1202,-0.1322,-0.135,-0.1392,-0.1468,-0.1469,-0.1525,-0.1591,-0.1593,-0.1458,-0.1443,-0.143,-0.1379,-0.1556,0,0,0,0,0,-0.0859,-0.0858,-0.0889,-0.0904,-0.1013,-0.1061,-0.1075,-0.1143,-0.1174,-0.1176,-0.1262,-0.1325,-0.1487,-0.1491,-0.1516,-0.1488,-0.1683,-0.168,-0.1678,-0.1515,-0.1497,-0.1482,0,0,0,0,0,0,-0.0865,-0.0885,-0.0889,-0.0981,-0.1005,-0.1062,-0.1126,-0.1145,-0.1175,-0.1184,-0.1307,-0.1329,-0.1408,-0.1485,-0.1506,-0.1477,-0.155,-0.1682,-0.168,-0.1678,-0.1509,-0.1494,-0.1482,0,0,0,0,0,-0.0871,-0.0886,-0.1042,-0.0982,-0.1003,-0.109,-0.1126,-0.1143,-0.1174,-0.1289,-0.1311,-0.1219,-0.1406,-0.143,-0.1498,-0.1464,-0.1536,-0.1543,-0.168,-0.1679,-0.1677,-0.1502,0,0,0,0,0,0,-0.0875,-0.0913,-0.1048,-0.1057,-0.0982,-0.1088,-0.1108,-0.1141,-0.128,-0.13,-0.1206,-0.1212,-0.1404,-0.1423,-0.1442,-0.1453,-0.1524,-0.1532,-0.1537,-0.1679,-0.1678,-0.1677,0,0,0,0,0,0,-0.0904,-0.092,-0.1053,-0.1049,-0.1059,-0.1086,-0.1103,-0.1179,-0.1282,-0.1193,-0.12,-0.1207,-0.1384,-0.1419,-0.1433,-0.1549,-0.1515,-0.1523,-0.1528,-0.1531,-0.1678,-0.1677,0,0,0,0,0,0,-0.0912,-0.0926,-0.1048,-0.1055,-0.1063,-0.1172,-0.1157,-0.1272,-0.1251,-0.1187,-0.1253,-0.1254,-0.1378,-0.1394,-0.1427,-0.1536,-0.1546,-0.1516,-0.1521,-0.1524,-0.1526,0,0,0,0,0,0,0,-0.0918,-0.0811,-0.0989,-0.106,-0.1067,-0.1136,-0.1139,-0.1142,-0.1251,-0.1252,-0.1253,-0.1253,-0.1473,-0.1481,-0.1489,-0.1526,0,0,-0.1515,-0.1518,0,0,0,0,0,0,0,0,-0.0807,-0.081,-0.0989,-0.099,-0.0992,-0.1136,-0.1139,-0.1141,-0.1251,-0.1252,-0.1252,-0.1253,-0.1475,-0.1482,-0.1489,0,0,0,0,0,0,0,0,0,0,0,0,0,0,0,-0.0989,-0.099,0,-0.1137,-0.1139,-0.1141,-0.1251,-0.1252,-0.1252,-0.1253,-0.1477,-0.1483,-0.1488,0,0,0,0,0,0,0,0,0,0,0,0,0,0,0,0,0,0,0,0,0,0,0,0,0,0,0,0,0,0,0,0,0,0,0,0,0,0,0,0,0,0,0,0,0,0,0,0,0,0,0,0,0,0,0,0,0,0,0,0,0,0,0,0,0,0,0,0,0]}],[{"header":{"parameterUnit":"kt","parameterCategory":2,"dx":1,"dy":1,"la1":30.253999710083008,"la2":30.299108505249023,"lo1":-89.0895004272461,"lo2":-89.04439544677734,"nx":28,"ny":28,"refTime":"2022-09-22T21:00:00:Z","depth":"0","parameterNumber":3,"parameterNumberName":"V-component_of_CURRENTS"},"data":[-0.1921,-0.1776,-0.1722,-0.1562,-0.1495,-0.1378,-0.1332,-0.1295,-0.1277,-0.1256,-0.127,-0.1318,-0.1492,-0.2147,-0.263,-0.2801,-0.2999,-0.3101,-0.313,-0.2913,-0.2903,-0.2894,-0.2877,-0.2979,-0.2979,-0.3559,-0.3562,-0.3564,-0.1977,-0.1892,-0.1796,-0.1651,-0.1566,-0.1539,-0.1469,-0.1429,-0.1396,-0.138,-0.1389,-0.1577,-0.191,-0.224,-0.2636,-0.2799,-0.3064,-0.2865,-0.3073,-0.3133,-0.2904,-0.2891,-0.2999,-0.2999,-0.2999,-0.2999,-0.2999,-0.2999,-0.2071,-0.1997,-0.1853,-0.1741,-0.1672,-0.159,-0.1544,-0.1523,-0.149,-0.1456,-0.1519,-0.154,-0.1877,-0.2224,-0.242,-0.2721,-0.2737,-0.28,-0.2715,-0.2857,-0.2922,-0.2593,-0.2721,-0.2721,-0.272,-0.2719,-0.2719,0,-0.2104,-0.2038,-0.1941,-0.1813,-0.175,-0.1683,-0.1641,-0.1622,-0.1606,-0.1593,-0.1599,-0.1631,-0.1849,-0.2057,-0.2284,-0.2447,-0.2613,-0.258,-0.2622,-0.2687,-0.2789,-0.2903,-0.2621,-0.272,-0.272,-0.2719,-0.2719,-0.2718,-0.2161,-0.2077,-0.1937,-0.188,-0.1832,-0.1777,-0.1733,-0.172,-0.1688,-0.1679,-0.1658,-0.1724,-0.175,-0.1986,-0.2207,-0.2415,-0.248,-0.2556,-0.26,-0.2588,-0.2555,-0.2686,-0.2748,-0.2709,-0.271,-0.2711,-0.2712,0,-0.2195,-0.2108,-0.199,-0.1886,-0.1866,-0.1818,-0.1772,-0.1737,-0.1731,-0.1692,-0.1692,-0.1705,-0.1811,-0.192,-0.2139,-0.2231,-0.2458,-0.2455,-0.245,-0.2505,-0.2605,-0.2533,-0.2771,-0.2854,-0.2558,-0.2558,-0.2558,0,-0.2231,-0.2152,-0.2037,-0.1973,-0.1897,-0.1845,-0.1792,-0.1766,-0.1742,-0.171,-0.1722,-0.1721,-0.1858,-0.1943,-0.208,-0.2242,-0.2276,-0.2392,-0.245,-0.2497,-0.2498,-0.2591,-0.2529,-0.2481,-0.248,-0.248,-0.2479,0,-0.2309,-0.2157,-0.2042,-0.1999,-0.1883,-0.1853,-0.1823,-0.1774,-0.175,-0.174,-0.1733,-0.178,-0.1831,-0.1965,-0.2098,-0.2114,-0.2279,-0.2351,-0.2426,-0.2425,-0.2537,-0.2542,-0.2609,-0.2478,-0.2478,-0.2478,-0.2477,0,-0.2328,-0.2237,-0.2082,-0.1993,-0.1963,-0.19,-0.1843,-0.179,-0.1764,-0.1763,-0.1768,-0.1808,-0.185,-0.1913,-0.2069,-0.2036,-0.2156,-0.225,-0.2259,-0.2273,-0.2347,-0.248,-0.2478,-0.2522,-0.2361,-0.236,-0.2359,0,-0.2453,-0.2281,-0.2214,-0.2083,-0.2,-0.1977,-0.1916,-0.1868,-0.185,-0.1829,-0.1874,-0.1888,-0.1919,-0.1954,-0.2002,-0.2134,-0.218,-0.2125,-0.2351,-0.2356,-0.2341,-0.2316,-0.2377,-0.2457,-0.2344,-0.2346,-0.2347,0,-0.2537,-0.2361,-0.2341,-0.2289,-0.218,-0.2128,-0.2046,-0.1982,-0.1961,-0.1927,-0.1908,-0.1929,-0.1976,-0.1997,-0.2054,-0.2107,-0.2158,-0.2176,-0.2184,-0.2212,-0.2325,-0.2299,-0.2306,-0.2245,-0.2247,-0.2248,-0.2336,0,-0.2583,-0.2483,-0.2428,-0.23,-0.2249,-0.2176,-0.2123,-0.2088,-0.2077,-0.2058,-0.2055,-0.2105,-0.2127,-0.2131,-0.2166,-0.2183,-0.2209,-0.2275,-0.2316,-0.2282,-0.2322,-0.2331,-0.2258,-0.226,-0.2261,-0.2262,0,0,-0.273,-0.2577,-0.252,-0.2435,-0.2389,-0.2368,-0.2285,-0.2253,-0.2199,-0.2195,-0.2213,-0.223,-0.2265,-0.2268,-0.2247,-0.2268,-0.2317,-0.2244,-0.2286,-0.2288,-0.229,-0.2327,-0.2333,-0.2265,-0.2266,-0.2266,-0.2267,0,-0.2725,-0.2652,-0.2551,-0.25,-0.2421,-0.2388,-0.2365,-0.2296,-0.2287,-0.2239,-0.2294,-0.2316,-0.2302,-0.2332,-0.2347,-0.2291,-0.2354,-0.2285,-0.2203,-0.2296,-0.2296,-0.2296,-0.2332,-0.2336,-0.227,-0.227,-0.227,0,-0.28,-0.272,-0.2655,-0.2535,-0.2493,-0.2418,-0.2445,-0.238,-0.233,-0.2401,-0.2351,-0.2391,-0.2429,-0.2408,-0.2403,-0.2419,-0.2396,-0.2378,-0.2371,-0.2354,-0.2453,-0.2452,-0.245,-0.2471,-0.2471,-0.2472,0,0,-0.2818,-0.2713,-0.2624,-0.2531,-0.2501,-0.2457,-0.2427,-0.2411,-0.2394,-0.2395,-0.2402,-0.2422,-0.2439,-0.244,-0.2454,-0.2423,-0.2477,-0.2399,-0.239,-0.2382,-0.2361,-0.2456,-0.2454,-0.2473,-0.2473,-0.2473,0,0,-0.2833,-0.2694,-0.2674,-0.2557,-0.2502,-0.2442,-0.2413,-0.2406,-0.2406,-0.2418,-0.2455,-0.2463,-0.2457,-0.2475,-0.249,-0.245,-0.2493,-0.249,-0.2425,-0.2414,-0.2404,-0.2378,-0.2529,0,0,0,0,0,-0.2781,-0.2702,-0.2684,-0.2655,-0.2518,-0.2438,-0.2429,-0.2419,-0.2436,-0.2416,-0.2446,-0.247,-0.2493,-0.2507,-0.2508,-0.2468,-0.249,-0.2487,-0.2484,-0.2395,-0.2383,-0.2372,0,0,0,0,0,0,-0.2769,-0.273,-0.2687,-0.2613,-0.2583,-0.2441,-0.2474,-0.2471,-0.2439,-0.2443,-0.2463,-0.2471,-0.2498,-0.2508,-0.2509,-0.247,-0.2529,-0.2489,-0.2487,-0.2484,-0.2391,-0.2381,-0.2372,0,0,0,0,0,-0.2759,-0.2728,-0.2499,-0.2617,-0.2591,-0.2554,-0.2477,-0.2475,-0.2458,-0.2473,-0.248,-0.2451,-0.2496,-0.25,-0.2508,-0.2468,-0.2528,-0.2528,-0.2487,-0.2485,-0.2484,-0.2386,0,0,0,0,0,0,-0.2752,-0.2748,-0.2495,-0.2489,-0.2639,-0.2564,-0.2547,-0.2478,-0.2493,-0.2494,-0.2465,-0.2469,-0.2494,-0.2498,-0.2501,-0.2465,-0.2528,-0.2528,-0.2528,-0.2486,-0.2484,-0.2483,0,0,0,0,0,0,-0.2764,-0.2742,-0.2493,-0.2521,-0.2518,-0.2574,-0.2558,-0.2553,-0.2496,-0.2487,-0.2487,-0.2467,-0.2512,-0.2496,-0.2498,-0.2489,-0.2527,-0.2528,-0.2528,-0.2528,-0.2485,-0.2483,0,0,0,0,0,0,-0.2756,-0.2737,-0.2523,-0.2521,-0.2519,-0.2455,-0.2575,-0.2453,-0.246,-0.2489,-0.2466,-0.2469,-0.2511,-0.2512,-0.2496,-0.2486,-0.2489,-0.2527,-0.2528,-0.2528,-0.2528,0,0,0,0,0,0,0,-0.2749,-0.2863,-0.2523,-0.2521,-0.2519,-0.2431,-0.243,-0.243,-0.2461,-0.2463,-0.2466,-0.2468,-0.2526,-0.2526,-0.2526,-0.2483,0,0,-0.2527,-0.2527,0,0,0,0,0,0,0,0,-0.2872,-0.2865,-0.2523,-0.2521,-0.252,-0.2431,-0.243,-0.243,-0.2461,-0.2463,-0.2465,-0.2467,-0.2526,-0.2526,-0.2526,0,0,0,0,0,0,0,0,0,0,0,0,0,0,0,-0.2523,-0.2521,0,-0.2431,-0.243,-0.243,-0.2462,-0.2463,-0.2465,-0.2466,-0.2526,-0.2526,-0.2526,0,0,0,0,0,0,0,0,0,0,0,0,0,0,0,0,0,0,0,0,0,0,0,0,0,0,0,0,0,0,0,0,0,0,0,0,0,0,0,0,0,0,0,0,0,0,0,0,0,0,0,0,0,0,0,0,0,0,0,0,0,0,0,0,0,0,0,0,0]}]],[[{"header":{"parameterUnit":"kt","parameterCategory":2,"dx":1,"dy":1,"la1":30.253999710083008,"la2":30.299108505249023,"lo1":-89.0895004272461,"lo2":-89.04439544677734,"nx":28,"ny":28,"refTime":"2022-09-22T21:00:00:Z","depth":"2","parameterNumber":2,"parameterNumberName":"U-component_of_CURRENTS"},"data":[0.0225,0.0258,0.026,0.0249,0.0251,0.0212,0.0173,-0.0024,-0.015,-0.0237,-0.0196,-0.0531,-0.036,-0.0183,-0.0161,0.0035,0.013,0.0003,0.0142,0.0112,0.0137,0.0287,0.0121,0,0,0,0,0,0.0198,0.0207,0.0245,0.0248,0.0239,0.0272,0.0214,0.0111,0.0035,-0.0046,-0.0193,-0.0186,-0.0294,-0.0113,0.0144,0.0197,0.0174,0.0266,0.0245,0.0266,0.0288,0.0175,0.006,0.0061,0.0063,0.0065,0,0,0.0131,0.0147,0.0175,0.0229,0.0247,0.0222,0.0225,0.0198,0.0178,0.0101,0.0052,-0.0036,-0.0057,0.0036,0.0143,0.0375,0.0378,0.0445,0.0455,0.0469,0.0361,0.0272,0.0295,0.0297,0.0299,0.0301,0.0303,0,0.0045,0.0077,0.0095,0.0146,0.0197,0.0213,0.0246,0.0252,0.0277,0.0292,0.0244,0.0171,0.0225,0.0214,0.0361,0.0388,0.0637,0.0609,0.0875,0.0462,0.0373,0.0364,0.0362,0.0435,0.0438,0.044,0.0442,0.0443,-0.006,-0.0011,0.003,0.0053,0.0087,0.0166,0.0206,0.0248,0.0255,0.0333,0.0335,0.0439,0.0345,0.0499,0.0599,0.0692,0.0796,0.0678,0.0607,0.076,0.0754,0.0738,0.0722,0.0477,0.0473,0.0469,0.0466,0,-0.0121,-0.0118,-0.0058,-0.0025,-0.0002,0.0067,0.0133,0.0181,0.0243,0.0313,0.0354,0.0397,0.0476,0.0557,0.0715,0.074,0.0833,0.0849,0.0625,0.0605,0.0741,0.0723,0.0893,0.0891,0.089,0.0889,0.0888,0,-0.0227,-0.0172,-0.016,-0.0122,-0.0051,-0.0041,0.006,0.0094,0.0162,0.0213,0.0264,0.0309,0.0433,0.0519,0.0582,0.0672,0.0751,0.0711,0.0721,0.0557,0.0532,0.0692,0.0673,0.0846,0.0845,0.0844,0.0843,0,-0.0295,-0.0262,-0.0207,-0.0195,-0.0165,-0.0109,-0.0077,-0.0012,0.0034,0.0135,0.018,0.0284,0.0365,0.0467,0.0533,0.0515,0.0702,0.069,0.0678,0.0671,0.0543,0.0517,0.0841,0.0841,0.0841,0.084,0.084,0,-0.0363,-0.0347,-0.0286,-0.0252,-0.0237,-0.0192,-0.0112,-0.0075,0.0002,0.0037,0.0113,0.0148,0.0263,0.0245,0.0417,0.0358,0.0436,0.0486,0.0494,0.0394,0.035,0.0319,0.0404,0.0551,0.0549,0.0546,0.0544,0,-0.0433,-0.0384,-0.0377,-0.0315,-0.029,-0.0274,-0.0231,-0.0185,-0.0143,-0.0074,-0.0015,0.0068,0.0055,0.0115,0.0185,0.0258,0.0348,0.0246,0.0404,0.0409,0.0313,0.0424,0.0246,0.0372,0.0511,0.0515,0.0517,0,-0.0477,-0.0448,-0.0426,-0.0403,-0.0373,-0.0349,-0.0305,-0.0255,-0.0205,-0.016,-0.0086,-0.001,0.0019,0.0049,0.0079,0.0155,0.0291,0.016,0.0163,0.0221,0.0487,0.039,0.0402,0.0317,0.0321,0.0324,0.0492,0,-0.0535,-0.0492,-0.0469,-0.0426,-0.0408,-0.0377,-0.0359,-0.0323,-0.0292,-0.0267,-0.018,-0.0135,-0.0067,-0.0049,-0.0037,0.0075,0.0075,0.0065,0.0046,0.0122,0.0182,0.0202,-0.0058,-0.0059,-0.006,-0.0061,0,0,-0.0579,-0.053,-0.0512,-0.0485,-0.0464,-0.0451,-0.0424,-0.04,-0.0356,-0.0322,-0.0323,-0.0215,-0.0191,-0.0103,-0.0074,-0.0068,-0.0022,-0.0068,0.0072,0.0086,0.01,0.0161,0.0182,-0.0063,-0.0063,-0.0063,-0.0064,0,-0.0597,-0.0559,-0.0523,-0.051,-0.0475,-0.0465,-0.0455,-0.0428,-0.0401,-0.035,-0.0328,-0.0272,-0.0223,-0.0181,-0.0156,-0.0087,-0.007,-0.008,-0.0028,0.006,0.0076,0.009,0.0154,0.0173,-0.0066,-0.0066,-0.0066,0,-0.0633,-0.0604,-0.058,-0.054,-0.0516,-0.0497,-0.0497,-0.0464,-0.0437,-0.0426,-0.0365,-0.0337,-0.0304,-0.0243,-0.0217,-0.0229,-0.0103,-0.0166,-0.016,-0.016,-0.0071,-0.0053,-0.0037,-0.024,-0.0241,-0.0241,0,0,-0.0647,-0.0607,-0.0588,-0.0544,-0.0534,-0.0511,-0.0493,-0.0479,-0.0447,-0.0427,-0.04,-0.0362,-0.0323,-0.0294,-0.0268,-0.0215,-0.0187,-0.0186,-0.0178,-0.0171,-0.0167,-0.0077,-0.006,-0.0243,-0.0243,-0.0243,0,0,-0.0659,-0.0621,-0.0603,-0.0559,-0.0539,-0.052,-0.0492,-0.0484,-0.0441,-0.0424,-0.0408,-0.0399,-0.0341,-0.0335,-0.036,-0.0269,-0.0304,-0.0299,-0.0265,-0.0255,-0.0247,-0.0249,-0.0376,0,0,0,0,0,-0.0659,-0.0629,-0.0613,-0.0602,-0.0546,-0.0526,-0.052,-0.0493,-0.0481,-0.0466,-0.0425,-0.0433,-0.0339,-0.036,-0.0354,-0.0315,-0.0267,-0.0262,-0.0258,-0.0204,-0.0193,-0.0184,0,0,0,0,0,0,-0.0655,-0.0642,-0.0614,-0.0592,-0.058,-0.0527,-0.052,-0.0512,-0.0482,-0.0478,-0.0438,-0.0432,-0.0422,-0.0364,-0.0358,-0.0321,-0.0378,-0.0265,-0.0261,-0.0258,-0.02,-0.0192,-0.0184,0,0,0,0,0,-0.0652,-0.0641,-0.0553,-0.0593,-0.0582,-0.0545,-0.0519,-0.0513,-0.0483,-0.0462,-0.0454,-0.0462,-0.0423,-0.0415,-0.0361,-0.0323,-0.0382,-0.038,-0.0263,-0.026,-0.0257,-0.0196,0,0,0,0,0,0,-0.0649,-0.0637,-0.0551,-0.0547,-0.0592,-0.0547,-0.0537,-0.0514,-0.0468,-0.0461,-0.0487,-0.0485,-0.0423,-0.0417,-0.0412,-0.0323,-0.0385,-0.0383,-0.0381,-0.0261,-0.0258,-0.0256,0,0,0,0,0,0,-0.0643,-0.0634,-0.0549,-0.0549,-0.0545,-0.0549,-0.054,-0.0517,-0.0467,-0.0495,-0.0492,-0.0487,-0.043,-0.0419,-0.0414,-0.0381,-0.0388,-0.0386,-0.0384,-0.0383,-0.0259,-0.0257,0,0,0,0,0,0,-0.0639,-0.0632,-0.055,-0.0547,-0.0543,-0.05,-0.0528,-0.047,-0.0472,-0.0498,-0.0471,-0.047,-0.0432,-0.0427,-0.0416,-0.0385,-0.0382,-0.0388,-0.0386,-0.0385,-0.0385,0,0,0,0,0,0,0,-0.0636,-0.0688,-0.0573,-0.0545,-0.0542,-0.0514,-0.0513,-0.0512,-0.0472,-0.0471,-0.0471,-0.047,-0.0401,-0.0398,-0.0396,-0.0388,0,0,-0.0388,-0.0387,0,0,0,0,0,0,0,0,-0.0691,-0.0689,-0.0573,-0.0572,-0.0572,-0.0514,-0.0513,-0.0512,-0.0471,-0.0471,-0.0471,-0.0471,-0.04,-0.0398,-0.0396,0,0,0,0,0,0,0,0,0,0,0,0,0,0,0,-0.0573,-0.0572,0,-0.0514,-0.0513,-0.0512,-0.0471,-0.0471,-0.0471,-0.0471,-0.0399,-0.0398,-0.0396,0,0,0,0,0,0,0,0,0,0,0,0,0,0,0,0,0,0,0,0,0,0,0,0,0,0,0,0,0,0,0,0,0,0,0,0,0,0,0,0,0,0,0,0,0,0,0,0,0,0,0,0,0,0,0,0,0,0,0,0,0,0,0,0,0,0,0,0,0]}],[{"header":{"parameterUnit":"kt","parameterCategory":2,"dx":1,"dy":1,"la1":30.253999710083008,"la2":30.299108505249023,"lo1":-89.0895004272461,"lo2":-89.04439544677734,"nx":28,"ny":28,"refTime":"2022-09-22T21:00:00:Z","depth":"2","parameterNumber":3,"parameterNumberName":"V-component_of_CURRENTS"},"data":[0.1126,0.1089,0.1048,0.1041,0.1052,0.104,0.1018,0.0985,0.0838,0.0611,0.0374,0.0281,0.0076,-0.012,-0.006,-0.0008,-0.0,0.0008,0.0298,-0.0008,-0.001,-0.0019,-0.0003,0,0,0,0,0,0.1102,0.1063,0.1059,0.1024,0.1026,0.1037,0.1,0.096,0.095,0.0805,0.0824,0.0401,0.0358,0.0195,0.0137,0.0226,0.0115,0.0243,-0.0008,-0.001,-0.0012,-0.0001,0.0006,0.0006,0.0006,0.0006,0,0,0.1045,0.1029,0.099,0.0988,0.0998,0.0987,0.0967,0.0949,0.0934,0.0868,0.0889,0.0788,0.0561,0.0397,0.0393,0.0363,0.04,0.0292,0.028,0.0271,0.0306,0.0381,0.0389,0.0391,0.0393,0.0394,0.0396,0,0.0988,0.0964,0.0935,0.0939,0.0938,0.093,0.0915,0.0895,0.083,0.0828,0.0819,0.0843,0.0767,0.0615,0.0557,0.048,0.0267,0.0275,0.036,-0.0026,0.0035,0.0037,0.0044,-0.0029,-0.0029,-0.0029,-0.0029,-0.0029,0.0923,0.092,0.0878,0.0883,0.087,0.0861,0.0862,0.0816,0.0799,0.0755,0.0747,0.0703,0.0711,0.0626,0.0471,0.0377,0.0339,0.0255,0.0206,0.0352,0.0357,0.0357,0.0359,-0.0031,-0.0031,-0.0031,-0.0031,0,0.0898,0.0867,0.085,0.0812,0.0809,0.0808,0.0782,0.0774,0.0743,0.0715,0.0699,0.0637,0.0571,0.0451,0.029,0.0268,0.0195,0.0204,0.0086,0.0083,0.0324,0.0332,0.0323,0.0329,0.0334,0.0339,0.0342,0,0.0861,0.085,0.0811,0.0801,0.0795,0.0758,0.0746,0.0728,0.0693,0.0669,0.0609,0.0584,0.0417,0.0344,0.0246,0.0216,0.0108,0.0181,0.0187,0.003,0.0037,0.0033,0.0043,-0.0047,-0.0047,-0.0047,-0.0047,0,0.0847,0.0814,0.0796,0.0784,0.0743,0.0734,0.0717,0.0683,0.0668,0.0616,0.0605,0.0489,0.0441,0.0324,0.0235,0.0218,0.01,0.0065,0.0174,0.0188,0.0032,0.004,-0.0047,-0.0047,-0.0047,-0.0047,-0.0047,0,0.0818,0.0802,0.0784,0.0744,0.0736,0.0724,0.0694,0.0675,0.0629,0.0608,0.0545,0.0502,0.0403,0.0375,0.0229,0.0258,0.0198,0.0145,0.0142,0.0313,0.0343,0.019,0.0116,0.0149,0.0151,0.0152,0.0153,0,0.0808,0.0789,0.0763,0.0743,0.073,0.0705,0.0686,0.0657,0.0631,0.0601,0.0527,0.0484,0.0442,0.0416,0.0337,0.0273,0.0215,0.0257,0.018,0.0179,0.0361,0.0323,0.0154,0.0135,0.0168,0.0167,0.0165,0,0.0799,0.0757,0.0758,0.0745,0.0718,0.0706,0.0684,0.0654,0.0641,0.0596,0.0566,0.0481,0.0456,0.0427,0.0386,0.0318,0.0246,0.0309,0.0306,0.0323,0.0141,0.0324,0.0331,0.0203,0.0201,0.0199,0.0178,0,0.0768,0.0756,0.0751,0.0732,0.0719,0.0708,0.0681,0.0669,0.0654,0.0633,0.0576,0.0527,0.0482,0.0455,0.0438,0.0356,0.0374,0.0355,0.0376,0.0318,0.032,0.031,0.0432,0.0433,0.0433,0.0433,0,0,0.077,0.0753,0.0736,0.0728,0.0716,0.0702,0.0693,0.0676,0.0653,0.0638,0.0641,0.0561,0.0541,0.0474,0.0449,0.0438,0.0422,0.0459,0.0349,0.0339,0.0331,0.0329,0.032,0.0434,0.0434,0.0435,0.0435,0,0.0758,0.0744,0.0738,0.0726,0.0712,0.07,0.0697,0.068,0.0671,0.0645,0.0627,0.0588,0.0562,0.0525,0.0504,0.0449,0.046,0.0443,0.0421,0.0354,0.0345,0.0336,0.0333,0.0324,0.0436,0.0436,0.0436,0,0.0753,0.074,0.0733,0.0715,0.0707,0.0695,0.0694,0.0686,0.0674,0.0668,0.065,0.0628,0.0598,0.0562,0.0548,0.0557,0.0487,0.0517,0.0514,0.052,0.0453,0.0441,0.0431,0.0565,0.0566,0.0566,0,0,0.0748,0.0737,0.0719,0.0712,0.0706,0.0695,0.0689,0.0687,0.0671,0.0668,0.0662,0.0641,0.0612,0.0602,0.0585,0.0553,0.0543,0.0535,0.0529,0.0524,0.0527,0.0459,0.0448,0.0568,0.0568,0.0569,0,0,0.0748,0.0725,0.0723,0.0712,0.0702,0.0687,0.0684,0.0681,0.0668,0.0669,0.0666,0.0664,0.0637,0.063,0.0658,0.0594,0.0616,0.0611,0.0608,0.06,0.0594,0.0604,0.0684,0,0,0,0,0,0.0732,0.0725,0.0724,0.072,0.07,0.0685,0.0682,0.0681,0.0685,0.0685,0.0668,0.0687,0.0635,0.066,0.0658,0.0641,0.0597,0.0592,0.0587,0.0575,0.0567,0.056,0,0,0,0,0,0,0.073,0.0726,0.0724,0.0708,0.0703,0.0685,0.069,0.069,0.0686,0.0687,0.0686,0.0687,0.0688,0.0662,0.066,0.0644,0.0685,0.0595,0.0591,0.0587,0.0573,0.0566,0.056,0,0,0,0,0,0.0729,0.0725,0.0695,0.0708,0.0704,0.0697,0.0691,0.0691,0.0691,0.0686,0.0687,0.0691,0.0687,0.0686,0.0661,0.0644,0.0686,0.0685,0.0592,0.0589,0.0586,0.0569,0,0,0,0,0,0,0.0728,0.0725,0.0694,0.0692,0.0716,0.0699,0.0697,0.0692,0.069,0.069,0.069,0.0692,0.0686,0.0686,0.0685,0.0643,0.0687,0.0686,0.0686,0.0589,0.0587,0.0584,0,0,0,0,0,0,0.0727,0.0724,0.0693,0.0703,0.0703,0.07,0.0699,0.0689,0.069,0.0695,0.0696,0.0691,0.0691,0.0685,0.0685,0.0669,0.0688,0.0687,0.0687,0.0686,0.0587,0.0585,0,0,0,0,0,0,0.0726,0.0723,0.0704,0.0703,0.0703,0.0686,0.0692,0.0675,0.0689,0.0696,0.0691,0.0692,0.0691,0.069,0.0685,0.0669,0.0669,0.0688,0.0687,0.0687,0.0687,0,0,0,0,0,0,0,0.0725,0.0744,0.0702,0.0704,0.0703,0.0677,0.0677,0.0677,0.0689,0.069,0.0691,0.0692,0.0692,0.0691,0.069,0.0669,0,0,0.0688,0.0688,0,0,0,0,0,0,0,0,0.0745,0.0744,0.0702,0.0701,0.0701,0.0677,0.0677,0.0677,0.0689,0.069,0.0691,0.0691,0.0692,0.0691,0.069,0,0,0,0,0,0,0,0,0,0,0,0,0,0,0,0.0702,0.0701,0,0.0677,0.0677,0.0677,0.069,0.069,0.0691,0.0691,0.0691,0.0691,0.069,0,0,0,0,0,0,0,0,0,0,0,0,0,0,0,0,0,0,0,0,0,0,0,0,0,0,0,0,0,0,0,0,0,0,0,0,0,0,0,0,0,0,0,0,0,0,0,0,0,0,0,0,0,0,0,0,0,0,0,0,0,0,0,0,0,0,0,0,0]}]],[[{"header":{"parameterUnit":"kt","parameterCategory":2,"dx":1,"dy":1,"la1":30.253999710083008,"la2":30.299108505249023,"lo1":-89.0895004272461,"lo2":-89.04439544677734,"nx":28,"ny":28,"refTime":"2022-09-22T21:00:00:Z","depth":"4","parameterNumber":2,"parameterNumberName":"U-component_of_CURRENTS"},"data":[-0.0592,-0.0593,-0.0579,-0.0504,-0.0458,-0.0428,-0.0429,-0.0451,-0.0437,-0.0475,-0.0469,-0.0498,-0.0486,-0.0521,-0.0463,-0.0464,-0.0648,-0.0489,-0.0487,-0.0857,-0.0883,-0.0906,-0.0859,0,0,0,0,0,-0.0606,-0.0594,-0.0589,-0.0562,-0.0546,-0.0534,-0.0554,-0.0576,-0.0602,-0.0556,-0.0581,-0.055,-0.0515,-0.051,-0.0483,-0.0515,-0.07,-0.0478,-0.0792,-0.0874,-0.0902,-0.0846,0,0,0,0,0,0,-0.0616,-0.0613,-0.0627,-0.0625,-0.062,-0.0587,-0.0607,-0.0595,-0.0604,-0.0633,-0.0597,-0.0604,-0.0658,-0.0623,-0.0593,-0.0592,-0.0702,-0.0767,-0.0799,-0.0827,-0.0761,-0.0591,-0.0417,0,0,0,0,0,-0.0623,-0.0643,-0.0654,-0.0656,-0.0666,-0.0665,-0.0677,-0.0671,-0.0708,-0.0756,-0.0708,-0.0699,-0.068,-0.076,-0.0701,-0.0769,-0.1019,-0.0914,-0.0935,-0.113,-0.1024,-0.1025,-0.1035,-0.101,-0.1014,-0.1016,-0.1018,0,-0.0638,-0.0649,-0.068,-0.0683,-0.0699,-0.0721,-0.0731,-0.078,-0.0786,-0.0804,-0.0796,-0.0825,-0.0862,-0.0839,-0.095,-0.1,-0.1004,-0.0984,-0.1191,-0.107,-0.1063,-0.1066,-0.1068,-0.1041,-0.1039,-0.1037,-0.1035,0,-0.065,-0.0669,-0.0687,-0.072,-0.0729,-0.0743,-0.078,-0.0791,-0.0841,-0.0856,-0.0884,-0.0956,-0.1013,-0.1078,-0.123,-0.1234,-0.1265,-0.1197,-0.1306,-0.1303,-0.1113,-0.1106,-0.1079,-0.107,-0.1063,-0.1057,-0.1052,0,-0.0669,-0.0683,-0.0711,-0.0722,-0.0736,-0.0773,-0.0797,-0.0831,-0.0873,-0.0881,-0.0974,-0.0986,-0.1203,-0.1228,-0.1322,-0.1307,-0.1442,-0.1347,-0.1335,-0.1564,-0.1555,-0.1572,-0.1563,-0.1654,-0.1655,-0.1655,-0.1655,0,-0.0684,-0.0709,-0.0721,-0.0735,-0.0773,-0.0789,-0.0811,-0.0854,-0.0872,-0.0942,-0.0962,-0.1087,-0.1153,-0.1286,-0.1343,-0.1415,-0.1462,-0.1572,-0.1367,-0.1347,-0.1571,-0.1561,-0.1656,-0.1656,-0.1656,-0.1656,-0.1656,0,-0.0706,-0.0716,-0.0732,-0.0764,-0.0771,-0.0791,-0.0831,-0.0856,-0.0899,-0.093,-0.0996,-0.1041,-0.1155,-0.1193,-0.1361,-0.1355,-0.1405,-0.1454,-0.1455,-0.1241,-0.1206,-0.1348,-0.1411,-0.141,-0.1409,-0.1408,-0.1407,0,-0.0717,-0.0727,-0.0746,-0.077,-0.078,-0.0813,-0.0835,-0.0864,-0.0896,-0.0926,-0.0984,-0.1038,-0.1088,-0.1139,-0.1228,-0.1323,-0.1364,-0.1329,-0.1424,-0.1424,-0.1204,-0.1216,-0.1435,-0.139,-0.1392,-0.1394,-0.1395,0,-0.0723,-0.0747,-0.0752,-0.0763,-0.0797,-0.0807,-0.0837,-0.086,-0.0877,-0.0925,-0.0953,-0.1042,-0.1079,-0.1114,-0.1164,-0.1244,-0.1327,-0.1293,-0.1297,-0.1259,-0.1459,-0.1222,-0.1208,-0.1419,-0.1423,-0.1425,-0.1383,0,-0.074,-0.0753,-0.0758,-0.0775,-0.0791,-0.0804,-0.0829,-0.0848,-0.0874,-0.0891,-0.0948,-0.1,-0.1061,-0.1088,-0.1119,-0.1217,-0.1201,-0.1242,-0.1243,-0.1292,-0.1258,-0.1267,-0.1156,-0.1155,-0.1155,-0.1155,0,0,-0.0746,-0.0748,-0.076,-0.0768,-0.0782,-0.0802,-0.0812,-0.0829,-0.0861,-0.0873,-0.0889,-0.0978,-0.1015,-0.1079,-0.1109,-0.1119,-0.1149,-0.1143,-0.1257,-0.1268,-0.1278,-0.125,-0.1259,-0.1155,-0.1154,-0.1154,-0.1154,0,-0.0744,-0.0755,-0.0757,-0.0769,-0.0787,-0.0798,-0.0804,-0.0825,-0.0841,-0.0873,-0.0901,-0.0946,-0.1005,-0.1043,-0.1071,-0.1111,-0.1141,-0.1141,-0.1166,-0.1252,-0.1263,-0.1273,-0.1248,-0.1256,-0.1154,-0.1154,-0.1154,0,-0.0745,-0.0752,-0.0757,-0.0768,-0.078,-0.0792,-0.0799,-0.0816,-0.0831,-0.0855,-0.089,-0.0923,-0.0967,-0.1017,-0.1043,-0.1043,-0.1132,-0.1104,-0.1107,-0.1106,-0.1194,-0.1207,-0.1218,-0.1076,-0.1075,-0.1075,0,0,-0.0744,-0.075,-0.0762,-0.0769,-0.0775,-0.0791,-0.08,-0.0814,-0.0836,-0.0848,-0.0877,-0.0917,-0.0956,-0.0985,-0.1014,-0.1058,-0.1072,-0.1094,-0.1098,-0.1101,-0.1102,-0.119,-0.1202,-0.1074,-0.1074,-0.1073,0,0,-0.0746,-0.0758,-0.0765,-0.0771,-0.0783,-0.0798,-0.0808,-0.0818,-0.0844,-0.0855,-0.0883,-0.0894,-0.094,-0.096,-0.0939,-0.1031,-0.1017,-0.1022,-0.102,-0.1025,-0.1028,-0.1022,-0.0958,0,0,0,0,0,-0.0752,-0.0754,-0.076,-0.0763,-0.078,-0.0791,-0.0795,-0.0815,-0.0826,-0.0832,-0.0862,-0.0879,-0.0961,-0.0942,-0.095,-0.099,-0.1057,-0.106,-0.1062,-0.107,-0.1075,-0.1079,0,0,0,0,0,0,-0.0753,-0.0756,-0.076,-0.0773,-0.0777,-0.0791,-0.0804,-0.0809,-0.0826,-0.083,-0.0872,-0.088,-0.09,-0.0939,-0.0946,-0.0984,-0.0955,-0.1058,-0.106,-0.1063,-0.1071,-0.1075,-0.1079,0,0,0,0,0,-0.0754,-0.0756,-0.078,-0.0773,-0.0777,-0.0803,-0.0804,-0.0809,-0.0825,-0.0858,-0.0867,-0.0842,-0.0899,-0.0908,-0.0944,-0.0981,-0.0951,-0.0953,-0.1059,-0.1061,-0.1063,-0.1073,0,0,0,0,0,0,-0.0755,-0.076,-0.0781,-0.0783,-0.078,-0.0803,-0.0807,-0.0809,-0.0853,-0.0861,-0.083,-0.0832,-0.0898,-0.0905,-0.0912,-0.0979,-0.0947,-0.0949,-0.0951,-0.1061,-0.1062,-0.1064,0,0,0,0,0,0,-0.0759,-0.0761,-0.0782,-0.0789,-0.0792,-0.0804,-0.0807,-0.0832,-0.0855,-0.0822,-0.0825,-0.083,-0.09,-0.0903,-0.0909,-0.0945,-0.0944,-0.0946,-0.0948,-0.0949,-0.1062,-0.1063,0,0,0,0,0,0,-0.076,-0.0762,-0.0788,-0.0791,-0.0793,-0.0819,-0.0827,-0.0851,-0.0838,-0.0821,-0.084,-0.0841,-0.0898,-0.0904,-0.0906,-0.094,-0.0944,-0.0944,-0.0945,-0.0947,-0.0947,0,0,0,0,0,0,0,-0.0761,-0.0742,-0.0769,-0.0792,-0.0795,-0.0803,-0.0804,-0.0804,-0.0838,-0.0839,-0.084,-0.0841,-0.0929,-0.0932,-0.0935,-0.0936,0,0,-0.0943,-0.0945,0,0,0,0,0,0,0,0,-0.0741,-0.0742,-0.0769,-0.077,-0.077,-0.0804,-0.0804,-0.0804,-0.0839,-0.0839,-0.084,-0.0841,-0.093,-0.0932,-0.0934,0,0,0,0,0,0,0,0,0,0,0,0,0,0,0,-0.0769,-0.077,0,-0.0804,-0.0804,-0.0804,-0.0839,-0.0839,-0.084,-0.084,-0.0931,-0.0932,-0.0934,0,0,0,0,0,0,0,0,0,0,0,0,0,0,0,0,0,0,0,0,0,0,0,0,0,0,0,0,0,0,0,0,0,0,0,0,0,0,0,0,0,0,0,0,0,0,0,0,0,0,0,0,0,0,0,0,0,0,0,0,0,0,0,0,0,0,0,0,0]}],[{"header":{"parameterUnit":"kt","parameterCategory":2,"dx":1,"dy":1,"la1":30.253999710083008,"la2":30.299108505249023,"lo1":-89.0895004272461,"lo2":-89.04439544677734,"nx":28,"ny":28,"refTime":"2022-09-22T21:00:00:Z","depth":"4","parameterNumber":3,"parameterNumberName":"V-component_of_CURRENTS"},"data":[-0.0757,-0.0794,-0.0802,-0.086,-0.0903,-0.0978,-0.1018,-0.1035,-0.1003,-0.1008,-0.0963,-0.0949,-0.0875,-0.0944,-0.0809,-0.0797,-0.0833,-0.0738,-0.0735,-0.0833,-0.0844,-0.0853,-0.0856,0,0,0,0,0,-0.0753,-0.0771,-0.0815,-0.087,-0.0936,-0.098,-0.1036,-0.1054,-0.107,-0.1036,-0.1043,-0.0992,-0.0913,-0.0902,-0.082,-0.0863,-0.0846,-0.0766,-0.0849,-0.084,-0.0852,-0.085,0,0,0,0,0,0,-0.0749,-0.0772,-0.0813,-0.0863,-0.0933,-0.0988,-0.1019,-0.1033,-0.1056,-0.1082,-0.1062,-0.1048,-0.1061,-0.0974,-0.0915,-0.0858,-0.0841,-0.0835,-0.0847,-0.0858,-0.0853,-0.0805,-0.0711,0,0,0,0,0,-0.0739,-0.0768,-0.0802,-0.0862,-0.0919,-0.0978,-0.1036,-0.1047,-0.11,-0.1139,-0.112,-0.1099,-0.106,-0.1036,-0.0973,-0.0915,-0.101,-0.0939,-0.0946,-0.0963,-0.0932,-0.0914,-0.0919,-0.0898,-0.09,-0.0901,-0.0901,0,-0.073,-0.0753,-0.0822,-0.0856,-0.0893,-0.0957,-0.1004,-0.1068,-0.1097,-0.1151,-0.1165,-0.1182,-0.1202,-0.1098,-0.11,-0.1021,-0.0993,-0.0971,-0.099,-0.0952,-0.093,-0.0933,-0.0935,-0.0911,-0.091,-0.0909,-0.0909,0,-0.0725,-0.0751,-0.08,-0.0861,-0.0889,-0.0935,-0.1014,-0.1056,-0.1115,-0.1166,-0.1199,-0.126,-0.1245,-0.124,-0.1221,-0.1172,-0.1114,-0.1057,-0.1145,-0.1125,-0.0954,-0.0952,-0.0927,-0.0924,-0.092,-0.0918,-0.0916,0,-0.0718,-0.0757,-0.0802,-0.0824,-0.0885,-0.0927,-0.0997,-0.1048,-0.1111,-0.115,-0.1217,-0.1242,-0.1294,-0.1285,-0.125,-0.1168,-0.1229,-0.1089,-0.1064,-0.1169,-0.1166,-0.1149,-0.1143,-0.1202,-0.1203,-0.1203,-0.1203,0,-0.0696,-0.0755,-0.0796,-0.0815,-0.0874,-0.0917,-0.0957,-0.1024,-0.106,-0.1148,-0.1181,-0.1241,-0.1273,-0.1267,-0.1235,-0.1237,-0.1215,-0.1213,-0.1082,-0.1073,-0.1149,-0.1143,-0.1204,-0.1204,-0.1204,-0.1204,-0.1204,0,-0.0691,-0.0714,-0.077,-0.082,-0.0838,-0.0883,-0.0952,-0.0996,-0.1062,-0.1097,-0.1151,-0.1175,-0.1224,-0.12,-0.1215,-0.1215,-0.1182,-0.1162,-0.116,-0.1055,-0.1007,-0.1038,-0.1099,-0.1098,-0.1098,-0.1098,-0.1097,0,-0.0645,-0.0696,-0.072,-0.078,-0.0806,-0.0834,-0.0884,-0.0932,-0.097,-0.1023,-0.1054,-0.1112,-0.1103,-0.1132,-0.1145,-0.1148,-0.1142,-0.114,-0.1099,-0.1097,-0.1001,-0.1036,-0.1143,-0.1093,-0.1093,-0.1094,-0.1094,0,-0.0609,-0.0651,-0.0662,-0.0681,-0.0728,-0.0756,-0.0813,-0.0863,-0.0897,-0.0946,-0.0998,-0.1059,-0.1068,-0.1087,-0.1092,-0.1102,-0.1129,-0.1081,-0.108,-0.1049,-0.1137,-0.104,-0.1033,-0.1137,-0.1138,-0.1139,-0.1091,0,-0.0574,-0.0606,-0.0627,-0.0666,-0.0696,-0.0728,-0.0757,-0.0793,-0.0817,-0.0841,-0.091,-0.0938,-0.0986,-0.0997,-0.0999,-0.1053,-0.1024,-0.1021,-0.0985,-0.1035,-0.1004,-0.1006,-0.0957,-0.0956,-0.0955,-0.0954,0,0,-0.0524,-0.0561,-0.0573,-0.0603,-0.0625,-0.0633,-0.067,-0.0697,-0.0745,-0.0769,-0.0769,-0.0854,-0.0873,-0.093,-0.0955,-0.0961,-0.095,-0.095,-0.101,-0.1017,-0.1022,-0.0996,-0.1,-0.0953,-0.0953,-0.0952,-0.0952,0,-0.0506,-0.0527,-0.0557,-0.0577,-0.0605,-0.0619,-0.063,-0.0662,-0.0685,-0.0741,-0.0748,-0.0789,-0.0841,-0.0863,-0.0879,-0.0944,-0.0916,-0.0952,-0.0986,-0.1002,-0.1009,-0.1016,-0.0992,-0.0996,-0.095,-0.095,-0.095,0,-0.047,-0.0486,-0.0503,-0.054,-0.0558,-0.0589,-0.0577,-0.0612,-0.0644,-0.0641,-0.0702,-0.0724,-0.0746,-0.0801,-0.0825,-0.0804,-0.0874,-0.0862,-0.0867,-0.087,-0.0885,-0.0894,-0.0902,-0.0797,-0.0797,-0.0796,0,0,-0.0455,-0.0482,-0.0502,-0.0536,-0.0547,-0.0565,-0.0583,-0.0595,-0.0623,-0.064,-0.0664,-0.0692,-0.0727,-0.0745,-0.0777,-0.082,-0.0806,-0.0845,-0.0852,-0.0858,-0.0864,-0.088,-0.0889,-0.0795,-0.0795,-0.0795,0,0,-0.0446,-0.047,-0.0474,-0.0514,-0.0536,-0.0557,-0.0582,-0.0588,-0.0627,-0.0632,-0.0642,-0.065,-0.0707,-0.0707,-0.0685,-0.0765,-0.0734,-0.0739,-0.0767,-0.0776,-0.0783,-0.0783,-0.0666,0,0,0,0,0,-0.0432,-0.0464,-0.0467,-0.0475,-0.0521,-0.0553,-0.056,-0.0578,-0.0576,-0.06,-0.0625,-0.0616,-0.07,-0.0681,-0.0688,-0.0721,-0.0774,-0.0777,-0.0781,-0.0828,-0.0837,-0.0845,0,0,0,0,0,0,-0.0435,-0.0445,-0.0466,-0.0486,-0.0497,-0.0552,-0.0542,-0.0548,-0.0575,-0.0577,-0.0612,-0.0617,-0.0624,-0.0677,-0.0684,-0.0715,-0.0664,-0.0775,-0.0778,-0.0781,-0.0831,-0.0839,-0.0845,0,0,0,0,0,-0.0438,-0.0446,-0.0516,-0.0486,-0.0495,-0.0523,-0.0542,-0.0547,-0.0574,-0.059,-0.0596,-0.0588,-0.0623,-0.063,-0.0681,-0.0712,-0.066,-0.0662,-0.0777,-0.078,-0.0782,-0.0835,0,0,0,0,0,0,-0.044,-0.0454,-0.0518,-0.0522,-0.0481,-0.0521,-0.0529,-0.0546,-0.0587,-0.0593,-0.0565,-0.0566,-0.0623,-0.0629,-0.0634,-0.0711,-0.0656,-0.0658,-0.066,-0.0779,-0.0781,-0.0783,0,0,0,0,0,0,-0.0449,-0.0456,-0.052,-0.0513,-0.0515,-0.0519,-0.0526,-0.0553,-0.0588,-0.056,-0.0561,-0.0565,-0.0613,-0.0628,-0.0632,-0.0674,-0.0653,-0.0655,-0.0657,-0.0658,-0.0781,-0.0782,0,0,0,0,0,0,-0.0453,-0.0459,-0.0512,-0.0514,-0.0517,-0.0557,-0.0544,-0.0591,-0.0579,-0.0558,-0.0579,-0.0578,-0.0612,-0.0617,-0.063,-0.067,-0.0673,-0.0653,-0.0655,-0.0656,-0.0657,0,0,0,0,0,0,0,-0.0455,-0.0411,-0.0496,-0.0516,-0.0518,-0.0551,-0.0553,-0.0554,-0.0579,-0.0579,-0.0579,-0.0578,-0.0639,-0.0642,-0.0644,-0.0667,0,0,-0.0653,-0.0654,0,0,0,0,0,0,0,0,-0.0408,-0.041,-0.0496,-0.0497,-0.0497,-0.0552,-0.0552,-0.0553,-0.0579,-0.0579,-0.0579,-0.0579,-0.064,-0.0642,-0.0644,0,0,0,0,0,0,0,0,0,0,0,0,0,0,0,-0.0497,-0.0497,0,-0.0552,-0.0552,-0.0553,-0.0579,-0.0579,-0.0579,-0.0579,-0.064,-0.0642,-0.0644,0,0,0,0,0,0,0,0,0,0,0,0,0,0,0,0,0,0,0,0,0,0,0,0,0,0,0,0,0,0,0,0,0,0,0,0,0,0,0,0,0,0,0,0,0,0,0,0,0,0,0,0,0,0,0,0,0,0,0,0,0,0,0,0,0,0,0,0,0]}]]]